Location: Lake Arresoe
(56.0000°N, 12.5000°E)
Time: 07:48:46
(UTC+01:00)

Envisat - Visible Passes

Search period start: 28 January 2022 00:00
Search period end: 07 February 2022 00:00
Orbit: 764 x 766 km, 98.2° (Epoch: 27 January)

Date Brightness Start Highest point End Pass type
(mag) Time Alt. Az. Time Alt. Az. Time Alt. Az.
28 Jan 5.2 04:04:25 10° NE 04:08:28 23° E 04:12:29 10° SE visible
28 Jan 2.9 05:42:55 10° NNE 05:48:01 72° WNW 05:53:04 10° SSW visible
28 Jan 4.4 07:22:56 10° N 07:26:16 18° NW 07:29:36 10° W visible
29 Jan 5.9 03:28:53 10° NE 03:31:02 13° E 03:33:11 10° ESE visible
29 Jan 3.3 05:06:02 10° NNE 05:11:07 64° ESE 05:16:09 10° S visible
29 Jan 3.8 06:45:31 10° N 06:49:50 29° WNW 06:54:08 10° WSW visible
30 Jan 4.5 04:29:21 10° NNE 04:34:00 35° E 04:38:38 10° SSE visible
30 Jan 3.2 06:08:20 10° N 06:13:12 48° WNW 06:18:05 10° SW visible
30 Jan 5.8 17:32:48 10° SW 17:36:13 18° W 17:39:38 10° NW visible
31 Jan 5.4 03:53:05 10° NE 03:56:44 19° E 04:00:21 10° SE visible
31 Jan 2.9 05:31:18 10° NNE 05:36:26 85° WNW 05:41:31 10° SSW visible
31 Jan 4.2 07:11:08 10° N 07:14:49 21° NW 07:18:30 10° W visible
01 Feb 6.1 03:18:48 10° ENE 03:19:13 10° E 03:19:39 10° E visible
01 Feb 3.7 04:54:27 10° NNE 04:59:28 53° E 05:04:26 10° S visible
01 Feb 3.6 06:33:48 10° N 06:38:20 33° WNW 06:42:50 10° WSW visible
01 Feb 6.2 18:00:17 10° W 18:01:55 11° W 18:03:32 10° WNW visible
02 Feb 4.8 04:17:52 10° NNE 04:22:18 29° E 04:26:43 10° SSE visible
02 Feb 3.0 05:56:39 10° N 06:01:40 57° WNW 06:06:38 10° SW visible
02 Feb 5.7 17:20:36 10° SW 17:24:26 21° W 17:28:19 10° NW visible
03 Feb 5.7 03:41:49 10° NE 03:44:58 16° E 03:48:04 10° ESE visible
03 Feb 3.0 05:19:41 10° NNE 05:24:49 81° ESE 05:29:55 10° SSW visible
03 Feb 4.1 06:59:22 10° N 07:03:21 24° NW 07:07:20 10° WSW visible
04 Feb 4.1 04:42:55 10° NNE 04:47:47 44° E 04:52:39 10° S visible
04 Feb 3.4 06:22:06 10° N 06:26:49 39° WNW 06:31:29 10° SW visible
04 Feb 6.0 17:47:29 10° WSW 17:50:07 14° W 17:52:44 10° NW visible
05 Feb 5.1 04:06:27 10° NE 04:10:36 24° E 04:14:42 10° SE visible
05 Feb 2.9 05:45:01 10° NNE 05:50:05 68° WNW 05:55:08 10° SSW visible
06 Feb 5.9 03:30:45 10° NE 03:33:10 13° E 03:35:35 10° ESE visible
06 Feb 3.3 05:08:05 10° NNE 05:13:11 67° ESE 05:18:15 10° S visible
06 Feb 3.9 06:47:37 10° N 06:51:52 27° WNW 06:56:06 10° WSW visible
